Regional Weather Roundup
Issued by NWS Kansas City/Pleasant Hill, MO

Home | Current Version | Previous Version | Graphics & Text | Print | Product List | Glossary Off
Versions: 1 2 3 4 5 6 7 8 9 10 11 12 13 14 15 16 17 18 19 20 21 22 23 24 25 26 27 28 29 30 31 32 33 34 35 36 37 38 39 40 41 42 43 44 45 46 47 48 49 50

000
ASUS43 KEAX 301210
RWREAX

WEATHER ROUNDUP FOR EASTERN KANSAS AND NORTHWEST MISSOURI
NATIONAL WEATHER SERVICE KANSAS CITY/PLEASANT HILL MO
700 AM CDT TUE JUN 30 2015

KSZ040-057-103>105-MOZ028-029-037-043-301300-
...KANSAS CITY METROPOLITAN AREA...

CITY           SKY/WX    TMP DP  RH WIND       PRES   REMARKS
K.C. INTL      CLOUDY    67  64  90 W7        29.93R
6HR MIN TEMP:  66; 6HR MAX TEMP:  73;

K.C. DOWNTOWN  MOSUNNY   72  67  84 SW3       29.92R
6HR MIN TEMP:  71; 6HR MAX TEMP:  75;

LEES SUMMIT    MOSUNNY   67  63  87 SW7       29.94R
6HR MIN TEMP:  66; 6HR MAX TEMP:  73;

OLATHE - IXD   MOSUNNY   69  63  81 W3        29.95R
6HR MIN TEMP:  66; 6HR MAX TEMP:  72;

OLATHE - OJC   MOSUNNY   69  62  78 W3        29.94R
6HR MIN TEMP:  65; 6HR MAX TEMP:  71;

LAWRENCE       PTCLDY    65  63  93 N6        29.94S FOG

$$

MOZ001>008-011>017-020>025-030>033-038>040-044>046-053-054-301300-
...NORTHERN AND CENTRAL MISSOURI...

CITY           SKY/WX    TMP DP  RH WIND       PRES   REMARKS
ST. JOSEPH     PTSUNNY   66  64  93 CALM      29.92R
6HR MIN TEMP:  64; 6HR MAX TEMP:  70;

MOSBY          MOSUNNY   64  64 100 CALM      29.92R
HARRISONVILLE  MOSUNNY   68  66  94 CALM      29.96S
WARRENSBURG    MOSUNNY   68  63  83 SW5       29.93R
WHITEMAN AFB   PTSUNNY   69  65  86 SW3       29.92R
6HR MIN TEMP:  68; 6HR MAX TEMP:  72;

CLINTON        SUNNY     72  66  83 SW5       29.95R
SEDALIA        SUNNY     69  66  90 SW5       29.94S
6HR MIN TEMP:  68; 6HR MAX TEMP:  74;

WARSAW         FAIR      68  66  94 CALM      29.95S
CHILLICOTHE      N/A     66  65  96 CALM      29.93R
6HR MIN TEMP:  65; 6HR MAX TEMP:  69;

KIRKSVILLE     SUNNY     66  63  90 W5        29.91S
6HR MIN TEMP:  64; 6HR MAX TEMP:  67;


$$

MOZ041-047>049-056>058-063>065-088>090-097-301300-
...EASTERN AND SOUTHERN MISSOURI...

CITY           SKY/WX    TMP DP  RH WIND       PRES   REMARKS
ST. LOUIS INTL SUNNY     72  66  81 W5        29.90R
6HR MIN TEMP:  70; 6HR MAX TEMP:  73;

SPIRIT OF STL  SUNNY     68  67  96 CALM      29.89R
COLUMBIA       SUNNY     69  65  86 W5        29.93R
JEFFERSON CITY SUNNY     67  66  97 CALM      29.92R FOG
MEXICO         SUNNY    N/A N/A N/A W6        29.91R
ROLLA          SUNNY     66  65  96 CALM      29.94R
OSAGE BEACH    SUNNY     70  64  83 SW5       29.95R
SPRINGFIELD    SUNNY     68  61  78 SW7       29.98R
BRANSON        CLOUDY    68  63  83 CALM      30.00S
NEVADA         MOSUNNY   70  63  78 SW5       29.97R
JOPLIN         PTCLDY    67  65  93 CALM      29.98R
WEST PLAINS    SUNNY     67  63  87 W6        29.98R
MALDEN         SUNNY     73  68  83 CALM      29.93R

$$

IAZ060-094-KSZ022-034>040-054-083-096-NEZ052-066-093-301300-
...KANSAS...SOUTHEAST NEBRASKA AND IOWA...

CITY           SKY/WX    TMP DP  RH WIND       PRES   REMARKS
TOPEKA         PTCLDY    67  65  93 W3        29.95R
6HR MIN TEMP:  65; 6HR MAX TEMP:  71;

MANHATTAN      CLEAR     63  61  93 CALM      29.96R
EMPORIA        CLOUDY    66  60  81 W3        29.97R
CHANUTE        PTCLDY    65  63  93 SW3       29.97R
WICHITA        MOCLDY    66  60  81 SW8       29.98R
OMAHA          CLOUDY    70  64  81 CALM      29.93R
LINCOLN        CLEAR     68  62  81 CALM      29.95R HAZE
FALLS CITY     PTSUNNY   65  62  90 W5        29.92S
LAMONI         MOSUNNY   67  62  84 W8        29.92R
DES MOINES     CLOUDY    68  62  81 NW3       29.89R HAZE

$$



USA.gov is the U.S. government's official web portal to all federal, state and local government web resources and services.